TimeCDT,TemperatureF,Dew PointF,Humidity,Sea Level PressureIn,VisibilityMPH,Wind Direction,Wind SpeedMPH,Gust SpeedMPH,PrecipitationIn,Events,Conditions,WindDirDegrees,DateUTC
12:15 AM,61.9,59.4,91,30.24,10.0,NE,4.6,-,N/A,,Scattered Clouds,50,2013-09-17 05:15:00
12:35 AM,61.2,59.0,93,30.24,10.0,NNE,3.5,-,N/A,,Scattered Clouds,20,2013-09-17 05:35:00
12:55 AM,59.9,58.5,95,30.24,10.0,Calm,Calm,-,N/A,,Clear,0,2013-09-17 05:55:00
1:15 AM,59.0,57.9,96,30.24,10.0,North,3.5,-,N/A,,Clear,10,2013-09-17 06:15:00
1:35 AM,59.2,58.1,96,30.24,10.0,NNE,4.6,-,N/A,,Clear,20,2013-09-17 06:35:00
1:55 AM,59.5,58.6,97,30.24,10.0,NNE,6.9,-,N/A,,Clear,30,2013-09-17 06:55:00
2:15 AM,59.7,58.8,97,30.24,10.0,NNE,5.8,-,N/A,,Clear,30,2013-09-17 07:15:00
2:35 AM,59.4,58.3,96,30.23,10.0,NNE,4.6,-,N/A,,Clear,20,2013-09-17 07:35:00
2:55 AM,59.0,58.1,97,30.23,10.0,NNE,3.5,-,N/A,,Clear,20,2013-09-17 07:55:00
3:15 AM,58.5,58.1,99,30.23,7.0,NNE,3.5,-,N/A,,Scattered Clouds,20,2013-09-17 08:15:00
3:35 AM,58.3,57.9,99,30.23,7.0,NNE,3.5,-,N/A,,Clear,30,2013-09-17 08:35:00
3:55 AM,57.7,57.6,99,30.23,7.0,NNE,3.5,-,N/A,,Clear,20,2013-09-17 08:55:00
4:15 AM,57.7,57.7,100,30.23,7.0,NNE,3.5,-,N/A,,Clear,20,2013-09-17 09:15:00
4:35 AM,57.6,57.6,100,30.23,7.0,NNE,4.6,-,N/A,,Clear,30,2013-09-17 09:35:00
4:55 AM,57.7,57.6,99,30.23,7.0,Calm,Calm,-,N/A,,Clear,0,2013-09-17 09:55:00
5:15 AM,57.6,57.4,99,30.23,7.0,Calm,Calm,-,N/A,,Clear,0,2013-09-17 10:15:00
5:35 AM,56.8,56.7,99,30.23,7.0,NE,3.5,-,N/A,,Clear,50,2013-09-17 10:35:00
5:55 AM,55.6,55.6,100,30.23,5.0,NNE,3.5,-,N/A,,Clear,30,2013-09-17 10:55:00
6:15 AM,56.7,56.7,100,30.24,7.0,Calm,Calm,-,N/A,,Clear,0,2013-09-17 11:15:00
6:35 AM,56.7,56.7,100,30.24,5.0,NNE,3.5,-,N/A,,Clear,20,2013-09-17 11:35:00
6:55 AM,56.7,56.7,100,30.24,5.0,NNE,3.5,-,N/A,,Clear,20,2013-09-17 11:55:00
7:15 AM,56.7,56.7,100,30.25,5.0,NNE,4.6,-,N/A,,Clear,30,2013-09-17 12:15:00
7:35 AM,57.4,57.4,100,30.25,5.0,NE,3.5,-,N/A,,Clear,50,2013-09-17 12:35:00
7:55 AM,58.1,57.7,99,30.25,5.0,ENE,3.5,-,N/A,,Clear,70,2013-09-17 12:55:00
8:15 AM,58.6,58.1,98,30.24,7.0,ENE,4.6,-,N/A,,Clear,60,2013-09-17 13:15:00
8:35 AM,60.1,59.2,97,30.25,5.0,East,5.8,-,N/A,,Clear,80,2013-09-17 13:35:00
8:55 AM,62.6,59.9,91,30.24,10.0,East,5.8,-,N/A,,Clear,80,2013-09-17 13:55:00
9:15 AM,64.2,59.2,84,30.25,10.0,East,8.1,-,N/A,,Clear,100,2013-09-17 14:15:00
9:35 AM,64.9,59.2,82,30.25,10.0,East,5.8,-,N/A,,Clear,90,2013-09-17 14:35:00
9:55 AM,67.1,59.9,78,30.25,10.0,East,8.1,-,N/A,,Clear,100,2013-09-17 14:55:00
10:15 AM,68.9,59.7,72,30.25,10.0,ESE,6.9,-,N/A,,Clear,120,2013-09-17 15:15:00
10:35 AM,70.5,60.3,70,30.24,10.0,East,9.2,-,N/A,,Clear,100,2013-09-17 15:35:00
10:55 AM,72.3,60.1,65,30.24,10.0,East,6.9,-,N/A,,Clear,80,2013-09-17 15:55:00
11:15 AM,73.9,59.9,61,30.23,10.0,East,8.1,-,N/A,,Clear,90,2013-09-17 16:15:00
11:35 AM,75.7,58.8,56,30.22,10.0,ESE,9.2,-,N/A,,Clear,110,2013-09-17 16:35:00
11:55 AM,76.5,58.8,54,30.22,10.0,East,6.9,-,N/A,,Clear,100,2013-09-17 16:55:00
12:15 PM,77.0,57.6,51,30.22,10.0,SE,6.9,-,N/A,,Clear,130,2013-09-17 17:15:00
12:35 PM,78.1,57.7,49,30.20,10.0,ESE,6.9,-,N/A,,Scattered Clouds,110,2013-09-17 17:35:00
12:55 PM,78.1,57.6,49,30.19,10.0,ESE,8.1,-,N/A,,Scattered Clouds,110,2013-09-17 17:55:00
1:15 PM,78.3,57.7,49,30.19,10.0,South,4.6,-,N/A,,Scattered Clouds,180,2013-09-17 18:15:00
1:35 PM,79.9,57.9,47,30.18,10.0,ESE,4.6,-,N/A,,Scattered Clouds,110,2013-09-17 18:35:00
1:55 PM,79.9,57.4,46,30.16,10.0,SE,5.8,-,N/A,,Scattered Clouds,140,2013-09-17 18:55:00
2:15 PM,79.0,56.7,46,30.16,10.0,SE,5.8,-,N/A,,Scattered Clouds,140,2013-09-17 19:15:00
2:35 PM,79.0,57.2,47,30.15,10.0,South,3.5,-,N/A,,Scattered Clouds,190,2013-09-17 19:35:00
2:55 PM,79.2,56.3,45,30.15,10.0,ESE,4.6,-,N/A,,Clear,110,2013-09-17 19:55:00
3:15 PM,79.2,56.5,46,30.14,10.0,NNE,4.6,-,N/A,,Clear,30,2013-09-17 20:15:00
3:35 PM,80.2,56.1,43,30.14,10.0,SSE,3.5,-,N/A,,Scattered Clouds,160,2013-09-17 20:35:00
3:55 PM,79.2,56.8,46,30.14,10.0,ENE,4.6,-,N/A,,Mostly Cloudy,60,2013-09-17 20:55:00
4:15 PM,79.7,57.0,46,30.13,10.0,ESE,4.6,-,N/A,,Scattered Clouds,110,2013-09-17 21:15:00
4:35 PM,79.2,57.2,47,30.13,10.0,ESE,5.8,-,N/A,,Clear,120,2013-09-17 21:35:00
4:55 PM,78.6,57.2,48,30.13,10.0,ESE,4.6,-,N/A,,Clear,110,2013-09-17 21:55:00
5:15 PM,78.8,57.4,48,30.12,10.0,ESE,4.6,-,N/A,,Clear,120,2013-09-17 22:15:00
5:35 PM,78.1,57.6,49,30.12,10.0,SE,4.6,-,N/A,,Clear,140,2013-09-17 22:35:00
5:55 PM,78.8,57.7,48,30.12,10.0,SSE,4.6,-,N/A,,Clear,150,2013-09-17 22:55:00
6:15 PM,78.3,57.2,48,30.12,10.0,SE,3.5,-,N/A,,Clear,140,2013-09-17 23:15:00
6:35 PM,76.6,57.9,52,30.12,10.0,Calm,Calm,-,N/A,,Clear,0,2013-09-17 23:35:00
6:55 PM,74.8,58.1,56,30.12,10.0,Calm,Calm,-,N/A,,Clear,0,2013-09-17 23:55:00
7:15 PM,72.1,58.6,62,30.12,7.0,Calm,Calm,-,N/A,,Clear,0,2013-09-18 00:15:00
7:35 PM,70.3,60.6,71,30.12,10.0,Calm,Calm,-,N/A,,Clear,0,2013-09-18 00:35:00
7:55 PM,67.8,60.8,78,30.12,10.0,ENE,3.5,-,N/A,,Clear,70,2013-09-18 00:55:00
8:15 PM,67.1,62.2,84,30.12,10.0,East,4.6,-,N/A,,Clear,90,2013-09-18 01:15:00
8:35 PM,67.3,62.1,83,30.12,10.0,East,5.8,-,N/A,,Clear,90,2013-09-18 01:35:00
8:55 PM,67.5,61.2,80,30.12,10.0,East,4.6,-,N/A,,Clear,90,2013-09-18 01:55:00
9:15 PM,67.1,61.0,81,30.12,10.0,East,3.5,-,N/A,,Clear,80,2013-09-18 02:15:00
9:35 PM,67.3,60.8,80,30.12,10.0,East,3.5,-,N/A,,Clear,100,2013-09-18 02:35:00
9:55 PM,65.5,60.8,85,30.12,10.0,East,4.6,-,N/A,,Clear,90,2013-09-18 02:55:00
10:15 PM,65.7,61.0,85,30.12,10.0,East,3.5,-,N/A,,Clear,80,2013-09-18 03:15:00
10:35 PM,65.5,61.0,85,30.12,10.0,Calm,Calm,-,N/A,,Clear,0,2013-09-18 03:35:00
10:55 PM,65.3,61.0,86,30.12,10.0,ENE,3.5,-,N/A,,Clear,70,2013-09-18 03:55:00
11:15 PM,64.8,61.2,88,30.12,10.0,Calm,Calm,-,N/A,,Clear,0,2013-09-18 04:15:00
11:35 PM,65.3,61.3,87,30.12,10.0,East,3.5,-,N/A,,Clear,90,2013-09-18 04:35:00
11:55 PM,65.5,61.9,88,30.12,10.0,East,3.5,-,N/A,,Clear,90,2013-09-18 04:55:00